owner,sensor,date,latitude,longitude,vertical_datum,wind_speed,wind_to_direction,wind_speed_of_gust,qcFlag 
FIT,ioos:station:wmo:SIPF1:1,2013-07-01T14:30:00Z,27.8620,-80.4450,1.0,4.7,199.0,99.0,'11111222,11111222,11144222' 
FIT,ioos:station:wmo:SIPF1:1,2013-07-01T14:45:00Z,27.8620,-80.4450,1.0,5.5,195.0,99.0,'11111222,11111222,11144222' 
FIT,ioos:station:wmo:SIPF1:1,2013-07-01T15:00:00Z,27.8620,-80.4450,1.0,7.6,196.0,99.0,'11111222,11111222,11144222' 
FIT,ioos:station:wmo:SIPF1:1,2013-07-01T15:15:00Z,27.8620,-80.4450,1.0,7.1,193.0,99.0,'11111222,11111222,11144222' 
FIT,ioos:station:wmo:SIPF1:1,2013-07-01T15:30:00Z,27.8620,-80.4450,1.0,6.6,194.0,99.0,'11111222,11111222,11144222' 
FIT,ioos:station:wmo:SIPF1:1,2013-07-01T15:45:00Z,27.8620,-80.4450,1.0,6.6,187.0,99.0,'11111222,11111222,11144222' 
FIT,ioos:station:wmo:SIPF1:1,2013-07-01T16:00:00Z,27.8620,-80.4450,1.0,3.9,140.0,99.0,'11111222,11111222,11144222' 
FIT,ioos:station:wmo:SIPF1:1,2013-07-01T16:15:00Z,27.8620,-80.4450,1.0,3.3,127.0,99.0,'11111222,11111222,11144222' 
FIT,ioos:station:wmo:SIPF1:1,2013-07-01T16:30:00Z,27.8620,-80.4450,1.0,3.3,124.0,99.0,'11111222,11111222,11144222' 
FIT,ioos:station:wmo:SIPF1:1,2013-07-01T16:45:00Z,27.8620,-80.4450,1.0,3.8,139.0,99.0,'11111222,11111222,11144222' 
FIT,ioos:station:wmo:SIPF1:1,2013-07-01T17:00:00Z,27.8620,-80.4450,1.0,5.9,144.0,99.0,'11111222,11111222,11144222' 
FIT,ioos:station:wmo:SIPF1:1,2013-07-01T17:15:00Z,27.8620,-80.4450,1.0,6.9,140.0,99.0,'11111222,11111222,11144222' 
FIT,ioos:station:wmo:SIPF1:1,2013-07-01T17:30:00Z,27.8620,-80.4450,1.0,6.5,156.0,99.0,'11111222,11111222,11144222' 
FIT,ioos:station:wmo:SIPF1:1,2013-07-01T17:45:00Z,27.8620,-80.4450,1.0,5.4,180.0,99.0,'11111222,11111222,11144222' 
FIT,ioos:station:wmo:SIPF1:1,2013-07-01T18:00:00Z,27.8620,-80.4450,1.0,3.7,322.0,99.0,'11111222,11111222,11144222' 
FIT,ioos:station:wmo:SIPF1:1,2013-07-01T18:15:00Z,27.8620,-80.4450,1.0,3.4,351.0,99.0,'11111222,11111222,11144222' 
FIT,ioos:station:wmo:SIPF1:1,2013-07-01T18:30:00Z,27.8620,-80.4450,1.0,1.0,25.0,99.0,'11111222,11111222,11144222' 
FIT,ioos:station:wmo:SIPF1:1,2013-07-01T18:45:00Z,27.8620,-80.4450,1.0,0.3,322.0,99.0,'11111222,11111222,11144222' 
FIT,ioos:station:wmo:SIPF1:1,2013-07-01T19:00:00Z,27.8620,-80.4450,1.0,4.6,159.0,99.0,'11111222,11111222,11144222' 
FIT,ioos:station:wmo:SIPF1:1,2013-07-01T19:15:00Z,27.8620,-80.4450,1.0,3.1,291.0,99.0,'11111222,11111222,11144222' 
FIT,ioos:station:wmo:SIPF1:1,2013-07-01T19:30:00Z,27.8620,-80.4450,1.0,2.0,330.0,99.0,'11111222,11111222,11144222' 
FIT,ioos:station:wmo:SIPF1:1,2013-07-01T19:45:00Z,27.8620,-80.4450,1.0,2.9,299.0,99.0,'11111222,11111222,11144222' 
FIT,ioos:station:wmo:SIPF1:1,2013-07-01T20:00:00Z,27.8620,-80.4450,1.0,2.1,312.0,99.0,'11111222,11111222,11144222' 
FIT,ioos:station:wmo:SIPF1:1,2013-07-01T20:15:00Z,27.8620,-80.4450,1.0,3.6,278.0,99.0,'11111222,11111222,11144222' 
FIT,ioos:station:wmo:SIPF1:1,2013-07-01T20:30:00Z,27.8620,-80.4450,1.0,8.0,242.0,99.0,'11111222,11111222,11144222' 
FIT,ioos:station:wmo:SIPF1:1,2013-07-01T20:45:00Z,27.8620,-80.4450,1.0,4.9,236.0,99.0,'11111222,11111222,11144222' 
FIT,ioos:station:wmo:SIPF1:1,2013-07-01T21:00:00Z,27.8620,-80.4450,1.0,3.1,213.0,99.0,'11111222,11111222,11144222' 
FIT,ioos:station:wmo:SIPF1:1,2013-07-01T21:15:00Z,27.8620,-80.4450,1.0,2.0,245.0,99.0,'11111222,11111222,11144222' 
FIT,ioos:station:wmo:SIPF1:1,2013-07-01T21:30:00Z,27.8620,-80.4450,1.0,2.1,243.0,99.0,'11111222,11111222,11144222' 
FIT,ioos:station:wmo:SIPF1:1,2013-07-01T21:45:00Z,27.8620,-80.4450,1.0,1.8,220.0,99.0,'11111222,11111222,11144222' 
FIT,ioos:station:wmo:SIPF1:1,2013-07-01T22:00:00Z,27.8620,-80.4450,1.0,4.1,198.0,99.0,'11111222,11111222,11144222' 
FIT,ioos:station:wmo:SIPF1:1,2013-07-01T22:15:00Z,27.8620,-80.4450,1.0,2.6,215.0,99.0,'11111222,11111222,11144222' 
FIT,ioos:station:wmo:SIPF1:1,2013-07-01T22:30:00Z,27.8620,-80.4450,1.0,3.0,240.0,99.0,'11111222,11111222,11144222' 
FIT,ioos:station:wmo:SIPF1:1,2013-07-01T22:45:00Z,27.8620,-80.4450,1.0,2.9,229.0,99.0,'11111222,11111222,11144222' 
FIT,ioos:station:wmo:SIPF1:1,2013-07-01T23:00:00Z,27.8620,-80.4450,1.0,3.6,228.0,99.0,'11111222,11111222,11144222' 
FIT,ioos:station:wmo:SIPF1:1,2013-07-01T23:15:00Z,27.8620,-80.4450,1.0,3.0,244.0,99.0,'11111222,11111222,11144222' 
FIT,ioos:station:wmo:SIPF1:1,2013-07-01T23:30:00Z,27.8620,-80.4450,1.0,2.8,235.0,99.0,'11111222,11111222,11144222' 
FIT,ioos:station:wmo:SIPF1:1,2013-07-01T23:45:00Z,27.8620,-80.4450,1.0,2.6,229.0,99.0,'11111222,11111222,11144222' 
FIT,ioos:station:wmo:SIPF1:1,2013-07-02T00:00:00Z,27.8620,-80.4450,1.0,2.2,216.0,99.0,'11111222,11111222,11144222' 
FIT,ioos:station:wmo:SIPF1:1,2013-07-02T00:15:00Z,27.8620,-80.4450,1.0,2.3,207.0,99.0,'11111222,11111222,11144222' 
FIT,ioos:station:wmo:SIPF1:1,2013-07-02T00:30:00Z,27.8620,-80.4450,1.0,1.8,199.0,99.0,'11111222,11111222,11144222' 
FIT,ioos:station:wmo:SIPF1:1,2013-07-02T00:45:00Z,27.8620,-80.4450,1.0,2.1,195.0,99.0,'11111222,11111222,11144222' 
FIT,ioos:station:wmo:SIPF1:1,2013-07-02T01:00:00Z,27.8620,-80.4450,1.0,2.9,183.0,99.0,'11111222,11111222,11144222' 
FIT,ioos:station:wmo:SIPF1:1,2013-07-02T01:15:00Z,27.8620,-80.4450,1.0,2.8,154.0,99.0,'11111222,11111222,11144222' 
FIT,ioos:station:wmo:SIPF1:1,2013-07-02T01:30:00Z,27.8620,-80.4450,1.0,3.5,134.0,99.0,'11111222,11111222,11144222' 
FIT,ioos:station:wmo:SIPF1:1,2013-07-02T01:45:00Z,27.8620,-80.4450,1.0,3.3,134.0,99.0,'11111222,11111222,11144222' 
FIT,ioos:station:wmo:SIPF1:1,2013-07-02T02:00:00Z,27.8620,-80.4450,1.0,3.6,132.0,99.0,'11111222,11111222,11144222' 
FIT,ioos:station:wmo:SIPF1:1,2013-07-02T02:15:00Z,27.8620,-80.4450,1.0,3.3,136.0,99.0,'11111222,11111222,11144222' 
FIT,ioos:station:wmo:SIPF1:1,2013-07-02T02:30:00Z,27.8620,-80.4450,1.0,3.2,135.0,99.0,'11111222,11111222,11144222' 
FIT,ioos:station:wmo:SIPF1:1,2013-07-02T02:45:00Z,27.8620,-80.4450,1.0,2.8,156.0,99.0,'11111222,11111222,11144222' 
FIT,ioos:station:wmo:SIPF1:1,2013-07-02T03:00:00Z,27.8620,-80.4450,1.0,3.0,142.0,99.0,'11111222,11111222,11144222' 
FIT,ioos:station:wmo:SIPF1:1,2013-07-02T03:15:00Z,27.8620,-80.4450,1.0,3.1,131.0,99.0,'11111222,11111222,11144222' 
FIT,ioos:station:wmo:SIPF1:1,2013-07-02T03:30:00Z,27.8620,-80.4450,1.0,3.4,117.0,99.0,'11111222,11111222,11144222' 
FIT,ioos:station:wmo:SIPF1:1,2013-07-02T03:45:00Z,27.8620,-80.4450,1.0,3.5,123.0,99.0,'11111222,11111222,11144222' 
FIT,ioos:station:wmo:SIPF1:1,2013-07-02T04:00:00Z,27.8620,-80.4450,1.0,4.1,116.0,99.0,'11111222,11111222,11144222' 
FIT,ioos:station:wmo:SIPF1:1,2013-07-02T04:15:00Z,27.8620,-80.4450,1.0,3.4,124.0,99.0,'11111222,11111222,11144222' 
FIT,ioos:station:wmo:SIPF1:1,2013-07-02T04:30:00Z,27.8620,-80.4450,1.0,3.6,133.0,99.0,'11111222,11111222,11144222' 
FIT,ioos:station:wmo:SIPF1:1,2013-07-02T04:45:00Z,27.8620,-80.4450,1.0,3.2,134.0,99.0,'11111222,11111222,11144222' 
FIT,ioos:station:wmo:SIPF1:1,2013-07-02T05:00:00Z,27.8620,-80.4450,1.0,4.0,133.0,99.0,'11111222,11111222,11144222' 
FIT,ioos:station:wmo:SIPF1:1,2013-07-02T05:15:00Z,27.8620,-80.4450,1.0,3.7,148.0,99.0,'11111222,11111222,11144222' 
FIT,ioos:station:wmo:SIPF1:1,2013-07-02T05:30:00Z,27.8620,-80.4450,1.0,3.6,145.0,99.0,'11111222,11111222,11144222' 
FIT,ioos:station:wmo:SIPF1:1,2013-07-02T05:45:00Z,27.8620,-80.4450,1.0,4.1,153.0,99.0,'11111222,11111222,11144222' 
FIT,ioos:station:wmo:SIPF1:1,2013-07-02T06:00:00Z,27.8620,-80.4450,1.0,3.9,143.0,99.0,'11111222,11111222,11144222' 
FIT,ioos:station:wmo:SIPF1:1,2013-07-02T06:15:00Z,27.8620,-80.4450,1.0,3.9,139.0,99.0,'11111222,11111222,11144222' 
FIT,ioos:station:wmo:SIPF1:1,2013-07-02T06:30:00Z,27.8620,-80.4450,1.0,3.4,138.0,99.0,'11111222,11111222,11144222' 
FIT,ioos:station:wmo:SIPF1:1,2013-07-02T06:45:00Z,27.8620,-80.4450,1.0,3.2,137.0,99.0,'11111222,11111222,11144222' 
FIT,ioos:station:wmo:SIPF1:1,2013-07-02T07:00:00Z,27.8620,-80.4450,1.0,3.6,135.0,99.0,'11111222,11111222,11144222' 
FIT,ioos:station:wmo:SIPF1:1,2013-07-02T07:15:00Z,27.8620,-80.4450,1.0,3.5,134.0,99.0,'11111222,11111222,11144222' 
FIT,ioos:station:wmo:SIPF1:1,2013-07-02T07:30:00Z,27.8620,-80.4450,1.0,3.2,143.0,99.0,'11111222,11111222,11144222' 
FIT,ioos:station:wmo:SIPF1:1,2013-07-02T07:45:00Z,27.8620,-80.4450,1.0,3.2,149.0,99.0,'11111222,11111222,11144222' 
FIT,ioos:station:wmo:SIPF1:1,2013-07-02T08:00:00Z,27.8620,-80.4450,1.0,3.1,148.0,99.0,'11111222,11111222,11144222' 
FIT,ioos:station:wmo:SIPF1:1,2013-07-02T08:15:00Z,27.8620,-80.4450,1.0,3.3,147.0,99.0,'11111222,11111222,11144222' 
FIT,ioos:station:wmo:SIPF1:1,2013-07-02T08:30:00Z,27.8620,-80.4450,1.0,3.3,139.0,99.0,'11111222,11111222,11144222' 
FIT,ioos:station:wmo:SIPF1:1,2013-07-02T08:45:00Z,27.8620,-80.4450,1.0,3.3,147.0,99.0,'11111222,11111222,11144222' 
FIT,ioos:station:wmo:SIPF1:1,2013-07-02T09:00:00Z,27.8620,-80.4450,1.0,3.4,147.0,99.0,'11111222,11111222,11144222' 
FIT,ioos:station:wmo:SIPF1:1,2013-07-02T09:15:00Z,27.8620,-80.4450,1.0,3.5,148.0,99.0,'11111222,11111222,11144222' 
FIT,ioos:station:wmo:SIPF1:1,2013-07-02T09:30:00Z,27.8620,-80.4450,1.0,3.3,146.0,99.0,'11111222,11111222,11144222' 
FIT,ioos:station:wmo:SIPF1:1,2013-07-02T09:45:00Z,27.8620,-80.4450,1.0,2.8,149.0,99.0,'11111222,11111222,11144222' 
FIT,ioos:station:wmo:SIPF1:1,2013-07-02T10:00:00Z,27.8620,-80.4450,1.0,2.6,159.0,99.0,'11111222,11111222,11144222' 
FIT,ioos:station:wmo:SIPF1:1,2013-07-02T10:15:00Z,27.8620,-80.4450,1.0,2.6,174.0,99.0,'11111222,11111222,11144222' 
FIT,ioos:station:wmo:SIPF1:1,2013-07-02T10:30:00Z,27.8620,-80.4450,1.0,3.3,179.0,99.0,'11111222,11111222,11144222' 
FIT,ioos:station:wmo:SIPF1:1,2013-07-02T10:45:00Z,27.8620,-80.4450,1.0,2.4,184.0,99.0,'11111222,11111222,11144222' 
FIT,ioos:station:wmo:SIPF1:1,2013-07-02T11:00:00Z,27.8620,-80.4450,1.0,2.4,172.0,99.0,'11111222,11111222,11144222' 
FIT,ioos:station:wmo:SIPF1:1,2013-07-02T11:15:00Z,27.8620,-80.4450,1.0,2.5,178.0,99.0,'11111222,11111222,11144222' 
FIT,ioos:station:wmo:SIPF1:1,2013-07-02T11:30:00Z,27.8620,-80.4450,1.0,2.8,143.0,99.0,'11111222,11111222,11144222' 
FIT,ioos:station:wmo:SIPF1:1,2013-07-02T11:45:00Z,27.8620,-80.4450,1.0,3.2,145.0,99.0,'11111222,11111222,11144222' 
FIT,ioos:station:wmo:SIPF1:1,2013-07-02T12:00:00Z,27.8620,-80.4450,1.0,2.4,147.0,99.0,'11111222,11111222,11144222' 
FIT,ioos:station:wmo:SIPF1:1,2013-07-02T12:15:00Z,27.8620,-80.4450,1.0,3.3,131.0,99.0,'11111222,11111222,11144222' 
FIT,ioos:station:wmo:SIPF1:1,2013-07-02T12:30:00Z,27.8620,-80.4450,1.0,2.8,140.0,99.0,'11111222,11111222,11144222' 
FIT,ioos:station:wmo:SIPF1:1,2013-07-02T12:45:00Z,27.8620,-80.4450,1.0,4.0,147.0,99.0,'11111222,11111222,11144222' 
FIT,ioos:station:wmo:SIPF1:1,2013-07-02T13:00:00Z,27.8620,-80.4450,1.0,3.8,151.0,99.0,'11111222,11111222,11144222' 
FIT,ioos:station:wmo:SIPF1:1,2013-07-02T13:15:00Z,27.8620,-80.4450,1.0,3.8,150.0,99.0,'11111222,11111222,11144222' 
FIT,ioos:station:wmo:SIPF1:1,2013-07-02T13:30:00Z,27.8620,-80.4450,1.0,2.6,164.0,99.0,'11111222,11111222,11144222' 
FIT,ioos:station:wmo:SIPF1:1,2013-07-02T13:45:00Z,27.8620,-80.4450,1.0,2.4,156.0,99.0,'11111222,11111222,11144222' 
FIT,ioos:station:wmo:SIPF1:1,2013-07-02T14:00:00Z,27.8620,-80.4450,1.0,3.2,153.0,99.0,'11111222,11111222,11144222' 
FIT,ioos:station:wmo:SIPF1:1,2013-07-02T14:15:00Z,27.8620,-80.4450,1.0,3.9,137.0,99.0,'11111222,11111222,11144222' 
FIT,ioos:station:wmo:SIPF1:1,2013-07-02T14:30:00Z,27.8620,-80.4450,1.0,4.0,136.0,99.0,'11111222,11111222,11144222' 
FIT,ioos:station:wmo:SIPF1:1,2013-07-02T14:45:00Z,27.8620,-80.4450,1.0,3.8,139.0,99.0,'11111222,11111222,11144222' 
FIT,ioos:station:wmo:SIPF1:1,2013-07-02T15:00:00Z,27.8620,-80.4450,1.0,3.7,135.0,99.0,'11111222,11111222,11144222' 
FIT,ioos:station:wmo:SIPF1:1,2013-07-02T15:15:00Z,27.8620,-80.4450,1.0,3.9,136.0,99.0,'11111222,11111222,11144222' 
FIT,ioos:station:wmo:SIPF1:1,2013-07-02T15:30:00Z,27.8620,-80.4450,1.0,3.9,129.0,99.0,'11111222,11111222,11144222' 
FIT,ioos:station:wmo:SIPF1:1,2013-07-02T15:45:00Z,27.8620,-80.4450,1.0,3.8,126.0,99.0,'11111222,11111222,11144222' 
FIT,ioos:station:wmo:SIPF1:1,2013-07-02T16:00:00Z,27.8620,-80.4450,1.0,3.0,125.0,99.0,'11111222,11111222,11144222' 
FIT,ioos:station:wmo:SIPF1:1,2013-07-02T16:15:00Z,27.8620,-80.4450,1.0,3.7,127.0,99.0,'11111222,11111222,11144222' 
FIT,ioos:station:wmo:SIPF1:1,2013-07-02T16:30:00Z,27.8620,-80.4450,1.0,3.9,131.0,99.0,'11111222,11111222,11144222' 
FIT,ioos:station:wmo:SIPF1:1,2013-07-02T16:45:00Z,27.8620,-80.4450,1.0,3.5,136.0,99.0,'11111222,11111222,11144222' 
FIT,ioos:station:wmo:SIPF1:1,2013-07-02T17:00:00Z,27.8620,-80.4450,1.0,3.4,141.0,99.0,'11111222,11111222,11144222' 
FIT,ioos:station:wmo:SIPF1:1,2013-07-02T17:15:00Z,27.8620,-80.4450,1.0,4.0,148.0,99.0,'11111222,11111222,11144222' 
FIT,ioos:station:wmo:SIPF1:1,2013-07-02T17:30:00Z,27.8620,-80.4450,1.0,4.0,150.0,99.0,'11111222,11111222,11144222' 
FIT,ioos:station:wmo:SIPF1:1,2013-07-02T17:45:00Z,27.8620,-80.4450,1.0,4.2,149.0,99.0,'11111222,11111222,11144222' 
FIT,ioos:station:wmo:SIPF1:1,2013-07-02T18:00:00Z,27.8620,-80.4450,1.0,3.7,171.0,99.0,'11111222,11111222,11144222' 
FIT,ioos:station:wmo:SIPF1:1,2013-07-02T18:15:00Z,27.8620,-80.4450,1.0,3.6,223.0,99.0,'11111222,11111222,11144222' 
FIT,ioos:station:wmo:SIPF1:1,2013-07-02T18:30:00Z,27.8620,-80.4450,1.0,5.0,269.0,99.0,'11111222,11111222,11144222' 
FIT,ioos:station:wmo:SIPF1:1,2013-07-02T18:45:00Z,27.8620,-80.4450,1.0,5.1,260.0,99.0,'11111222,11111222,11144222' 
FIT,ioos:station:wmo:SIPF1:1,2013-07-02T19:00:00Z,27.8620,-80.4450,1.0,4.3,253.0,99.0,'11111222,11111222,11144222' 
FIT,ioos:station:wmo:SIPF1:1,2013-07-02T19:15:00Z,27.8620,-80.4450,1.0,3.9,269.0,99.0,'11111222,11111222,11144222' 
FIT,ioos:station:wmo:SIPF1:1,2013-07-02T19:30:00Z,27.8620,-80.4450,1.0,3.5,275.0,99.0,'11111222,11111222,11144222' 
FIT,ioos:station:wmo:SIPF1:1,2013-07-02T19:45:00Z,27.8620,-80.4450,1.0,3.4,284.0,99.0,'11111222,11111222,11144222' 
FIT,ioos:station:wmo:SIPF1:1,2013-07-02T20:00:00Z,27.8620,-80.4450,1.0,2.7,285.0,99.0,'11111222,11111222,11144222' 
FIT,ioos:station:wmo:SIPF1:1,2013-07-02T20:15:00Z,27.8620,-80.4450,1.0,2.8,283.0,99.0,'11111222,11111222,11144222' 
FIT,ioos:station:wmo:SIPF1:1,2013-07-02T20:30:00Z,27.8620,-80.4450,1.0,2.2,322.0,99.0,'11111222,11111222,11144222' 
FIT,ioos:station:wmo:SIPF1:1,2013-07-02T20:45:00Z,27.8620,-80.4450,1.0,2.5,12.0,99.0,'11111222,11111222,11144222' 
FIT,ioos:station:wmo:SIPF1:1,2013-07-02T21:00:00Z,27.8620,-80.4450,1.0,3.1,43.0,99.0,'11111222,11111222,11144222' 
FIT,ioos:station:wmo:SIPF1:1,2013-07-02T21:15:00Z,27.8620,-80.4450,1.0,3.9,48.0,99.0,'11111222,11111222,11144222' 
FIT,ioos:station:wmo:SIPF1:1,2013-07-02T21:30:00Z,27.8620,-80.4450,1.0,2.4,55.0,99.0,'11111222,11111222,11144222' 
FIT,ioos:station:wmo:SIPF1:1,2013-07-02T21:45:00Z,27.8620,-80.4450,1.0,1.4,78.0,99.0,'11111222,11111222,11144222' 
FIT,ioos:station:wmo:SIPF1:1,2013-07-02T22:00:00Z,27.8620,-80.4450,1.0,2.2,85.0,99.0,'11111222,11111222,11144222' 
FIT,ioos:station:wmo:SIPF1:1,2013-07-02T22:15:00Z,27.8620,-80.4450,1.0,3.3,68.0,99.0,'11111222,11111222,11144222' 
FIT,ioos:station:wmo:SIPF1:1,2013-07-02T22:30:00Z,27.8620,-80.4450,1.0,3.2,61.0,99.0,'11111222,11111222,11144222' 
FIT,ioos:station:wmo:SIPF1:1,2013-07-02T22:45:00Z,27.8620,-80.4450,1.0,2.6,65.0,99.0,'11111222,11111222,11144222' 
FIT,ioos:station:wmo:SIPF1:1,2013-07-02T23:00:00Z,27.8620,-80.4450,1.0,2.1,77.0,99.0,'11111222,11111222,11144222' 
FIT,ioos:station:wmo:SIPF1:1,2013-07-02T23:15:00Z,27.8620,-80.4450,1.0,2.0,46.0,99.0,'11111222,11111222,11144222' 
FIT,ioos:station:wmo:SIPF1:1,2013-07-02T23:30:00Z,27.8620,-80.4450,1.0,2.9,32.0,99.0,'11111222,11111222,11144222' 
FIT,ioos:station:wmo:SIPF1:1,2013-07-02T23:45:00Z,27.8620,-80.4450,1.0,3.1,41.0,99.0,'11111222,11111222,11144222' 
FIT,ioos:station:wmo:SIPF1:1,2013-07-03T00:00:00Z,27.8620,-80.4450,1.0,3.8,48.0,99.0,'11111222,11111222,11144222' 
FIT,ioos:station:wmo:SIPF1:1,2013-07-03T00:15:00Z,27.8620,-80.4450,1.0,3.4,38.0,99.0,'11111222,11111222,11144222' 
FIT,ioos:station:wmo:SIPF1:1,2013-07-03T00:30:00Z,27.8620,-80.4450,1.0,2.7,18.0,99.0,'11111222,11111222,11144222' 
FIT,ioos:station:wmo:SIPF1:1,2013-07-03T00:45:00Z,27.8620,-80.4450,1.0,3.4,7.0,99.0,'11111222,11111222,11144222' 
FIT,ioos:station:wmo:SIPF1:1,2013-07-03T01:00:00Z,27.8620,-80.4450,1.0,3.3,11.0,99.0,'11111222,11111222,11144222' 
FIT,ioos:station:wmo:SIPF1:1,2013-07-03T01:15:00Z,27.8620,-80.4450,1.0,2.6,6.0,99.0,'11111222,11111222,11144222' 
FIT,ioos:station:wmo:SIPF1:1,2013-07-03T01:30:00Z,27.8620,-80.4450,1.0,2.6,353.0,99.0,'11111222,11111222,11144222' 
FIT,ioos:station:wmo:SIPF1:1,2013-07-03T01:45:00Z,27.8620,-80.4450,1.0,3.1,356.0,99.0,'11111222,11111222,11144222' 
FIT,ioos:station:wmo:SIPF1:1,2013-07-03T02:00:00Z,27.8620,-80.4450,1.0,2.4,10.0,99.0,'11111222,11111222,11144222' 
FIT,ioos:station:wmo:SIPF1:1,2013-07-03T02:15:00Z,27.8620,-80.4450,1.0,2.9,4.0,99.0,'11111222,11111222,11144222' 
FIT,ioos:station:wmo:SIPF1:1,2013-07-03T02:30:00Z,27.8620,-80.4450,1.0,3.3,12.0,99.0,'11111222,11111222,11144222' 
FIT,ioos:station:wmo:SIPF1:1,2013-07-03T02:45:00Z,27.8620,-80.4450,1.0,2.7,38.0,99.0,'11111222,11111222,11144222' 
FIT,ioos:station:wmo:SIPF1:1,2013-07-03T03:00:00Z,27.8620,-80.4450,1.0,2.9,63.0,99.0,'11111222,11111222,11144222' 
FIT,ioos:station:wmo:SIPF1:1,2013-07-03T03:15:00Z,27.8620,-80.4450,1.0,4.1,87.0,99.0,'11111222,11111222,11144222' 
FIT,ioos:station:wmo:SIPF1:1,2013-07-03T03:30:00Z,27.8620,-80.4450,1.0,4.3,107.0,99.0,'11111222,11111222,11144222' 
FIT,ioos:station:wmo:SIPF1:1,2013-07-03T03:45:00Z,27.8620,-80.4450,1.0,4.1,112.0,99.0,'11111222,11111222,11144222' 
FIT,ioos:station:wmo:SIPF1:1,2013-07-03T04:00:00Z,27.8620,-80.4450,1.0,3.6,125.0,99.0,'11111222,11111222,11144222' 
FIT,ioos:station:wmo:SIPF1:1,2013-07-03T04:15:00Z,27.8620,-80.4450,1.0,3.0,150.0,99.0,'11111222,11111222,11144222' 
FIT,ioos:station:wmo:SIPF1:1,2013-07-03T04:30:00Z,27.8620,-80.4450,1.0,2.6,136.0,99.0,'11111222,11111222,11144222' 
FIT,ioos:station:wmo:SIPF1:1,2013-07-03T04:45:00Z,27.8620,-80.4450,1.0,2.4,118.0,99.0,'11111222,11111222,11144222' 
FIT,ioos:station:wmo:SIPF1:1,2013-07-03T05:00:00Z,27.8620,-80.4450,1.0,2.4,129.0,99.0,'11111222,11111222,11144222' 
FIT,ioos:station:wmo:SIPF1:1,2013-07-03T05:15:00Z,27.8620,-80.4450,1.0,2.5,134.0,99.0,'11111222,11111222,11144222' 
FIT,ioos:station:wmo:SIPF1:1,2013-07-03T05:30:00Z,27.8620,-80.4450,1.0,2.6,143.0,99.0,'11111222,11111222,11144222' 
FIT,ioos:station:wmo:SIPF1:1,2013-07-03T05:45:00Z,27.8620,-80.4450,1.0,3.2,145.0,99.0,'11111222,11111222,11144222' 
FIT,ioos:station:wmo:SIPF1:1,2013-07-03T06:00:00Z,27.8620,-80.4450,1.0,3.1,153.0,99.0,'11111222,11111222,11144222' 
FIT,ioos:station:wmo:SIPF1:1,2013-07-03T06:15:00Z,27.8620,-80.4450,1.0,3.9,159.0,99.0,'11111222,11111222,11144222' 
FIT,ioos:station:wmo:SIPF1:1,2013-07-03T06:30:00Z,27.8620,-80.4450,1.0,3.8,163.0,99.0,'11111222,11111222,11144222' 
FIT,ioos:station:wmo:SIPF1:1,2013-07-03T06:45:00Z,27.8620,-80.4450,1.0,3.5,158.0,99.0,'11111222,11111222,11144222' 
FIT,ioos:station:wmo:SIPF1:1,2013-07-03T07:00:00Z,27.8620,-80.4450,1.0,3.3,162.0,99.0,'11111222,11111222,11144222' 
FIT,ioos:station:wmo:SIPF1:1,2013-07-03T07:15:00Z,27.8620,-80.4450,1.0,2.8,161.0,99.0,'11111222,11111222,11144222' 
FIT,ioos:station:wmo:SIPF1:1,2013-07-03T07:30:00Z,27.8620,-80.4450,1.0,2.9,162.0,99.0,'11111222,11111222,11144222' 
FIT,ioos:station:wmo:SIPF1:1,2013-07-03T07:45:00Z,27.8620,-80.4450,1.0,2.8,157.0,99.0,'11111222,11111222,11144222' 
FIT,ioos:station:wmo:SIPF1:1,2013-07-03T08:00:00Z,27.8620,-80.4450,1.0,2.9,143.0,99.0,'11111222,11111222,11144222' 
FIT,ioos:station:wmo:SIPF1:1,2013-07-03T08:15:00Z,27.8620,-80.4450,1.0,2.7,142.0,99.0,'11111222,11111222,11144222' 
FIT,ioos:station:wmo:SIPF1:1,2013-07-03T08:30:00Z,27.8620,-80.4450,1.0,2.6,151.0,99.0,'11111222,11111222,11144222' 
FIT,ioos:station:wmo:SIPF1:1,2013-07-03T08:45:00Z,27.8620,-80.4450,1.0,2.8,146.0,99.0,'11111222,11111222,11144222' 
FIT,ioos:station:wmo:SIPF1:1,2013-07-03T09:00:00Z,27.8620,-80.4450,1.0,3.0,149.0,99.0,'11111222,11111222,11144222' 
FIT,ioos:station:wmo:SIPF1:1,2013-07-03T09:15:00Z,27.8620,-80.4450,1.0,3.0,151.0,99.0,'11111222,11111222,11144222' 
FIT,ioos:station:wmo:SIPF1:1,2013-07-03T09:30:00Z,27.8620,-80.4450,1.0,2.9,141.0,99.0,'11111222,11111222,11144222' 
FIT,ioos:station:wmo:SIPF1:1,2013-07-03T09:45:00Z,27.8620,-80.4450,1.0,2.3,126.0,99.0,'11111222,11111222,11144222' 
FIT,ioos:station:wmo:SIPF1:1,2013-07-03T10:00:00Z,27.8620,-80.4450,1.0,2.9,133.0,99.0,'11111222,11111222,11144222' 
FIT,ioos:station:wmo:SIPF1:1,2013-07-03T10:15:00Z,27.8620,-80.4450,1.0,3.0,131.0,99.0,'11111222,11111222,11144222' 
FIT,ioos:station:wmo:SIPF1:1,2013-07-03T10:30:00Z,27.8620,-80.4450,1.0,3.2,127.0,99.0,'11111222,11111222,11144222' 
FIT,ioos:station:wmo:SIPF1:1,2013-07-03T10:45:00Z,27.8620,-80.4450,1.0,2.3,142.0,99.0,'11111222,11111222,11144222' 
FIT,ioos:station:wmo:SIPF1:1,2013-07-03T11:00:00Z,27.8620,-80.4450,1.0,1.7,145.0,99.0,'11111222,11111222,11144222' 
FIT,ioos:station:wmo:SIPF1:1,2013-07-03T11:15:00Z,27.8620,-80.4450,1.0,2.1,164.0,99.0,'11111222,11111222,11144222' 
FIT,ioos:station:wmo:SIPF1:1,2013-07-03T11:30:00Z,27.8620,-80.4450,1.0,2.8,161.0,99.0,'11111222,11111222,11144222' 
FIT,ioos:station:wmo:SIPF1:1,2013-07-03T11:45:00Z,27.8620,-80.4450,1.0,3.5,147.0,99.0,'11111222,11111222,11144222' 
FIT,ioos:station:wmo:SIPF1:1,2013-07-03T12:00:00Z,27.8620,-80.4450,1.0,3.2,143.0,99.0,'11111222,11111222,11144222' 
FIT,ioos:station:wmo:SIPF1:1,2013-07-03T12:15:00Z,27.8620,-80.4450,1.0,3.1,145.0,99.0,'11111222,11111222,11144222' 
FIT,ioos:station:wmo:SIPF1:1,2013-07-03T12:30:00Z,27.8620,-80.4450,1.0,2.9,144.0,99.0,'11111222,11111222,11144222' 
FIT,ioos:station:wmo:SIPF1:1,2013-07-03T12:45:00Z,27.8620,-80.4450,1.0,2.3,144.0,99.0,'11111222,11111222,11144222' 
FIT,ioos:station:wmo:SIPF1:1,2013-07-03T13:00:00Z,27.8620,-80.4450,1.0,1.8,127.0,99.0,'11111222,11111222,11144222' 
FIT,ioos:station:wmo:SIPF1:1,2013-07-03T13:15:00Z,27.8620,-80.4450,1.0,1.6,120.0,99.0,'11111222,11111222,11144222' 
FIT,ioos:station:wmo:SIPF1:1,2013-07-03T13:30:00Z,27.8620,-80.4450,1.0,2.0,116.0,99.0,'11111222,11111222,11144222' 
FIT,ioos:station:wmo:SIPF1:1,2013-07-03T13:45:00Z,27.8620,-80.4450,1.0,2.7,131.0,99.0,'11111222,11111222,11144222' 
FIT,ioos:station:wmo:SIPF1:1,2013-07-03T14:00:00Z,27.8620,-80.4450,1.0,2.3,139.0,99.0,'11111222,11111222,11144222' 
FIT,ioos:station:wmo:SIPF1:1,2013-07-03T14:15:00Z,27.8620,-80.4450,1.0,2.5,144.0,99.0,'11111222,11111222,11144222' 
FIT,ioos:station:wmo:SIPF1:1,2013-07-03T14:30:00Z,27.8620,-80.4450,1.0,2.8,138.0,99.0,'11111222,11111222,11144222' 
FIT,ioos:station:wmo:SIPF1:1,2013-07-03T14:45:00Z,27.8620,-80.4450,1.0,3.7,137.0,99.0,'11111222,11111222,11144222' 
FIT,ioos:station:wmo:SIPF1:1,2013-07-03T15:00:00Z,27.8620,-80.4450,1.0,3.0,142.0,99.0,'11111222,11111222,11144222' 
FIT,ioos:station:wmo:SIPF1:1,2013-07-03T15:15:00Z,27.8620,-80.4450,1.0,2.7,133.0,99.0,'11111222,11111222,11144222' 
FIT,ioos:station:wmo:SIPF1:1,2013-07-03T15:30:00Z,27.8620,-80.4450,1.0,3.6,137.0,99.0,'11111222,11111222,11144222' 
FIT,ioos:station:wmo:SIPF1:1,2013-07-03T15:45:00Z,27.8620,-80.4450,1.0,3.9,145.0,99.0,'11111222,11111222,11144222' 
FIT,ioos:station:wmo:SIPF1:1,2013-07-03T16:00:00Z,27.8620,-80.4450,1.0,4.3,143.0,99.0,'11111222,11111222,11144222' 
FIT,ioos:station:wmo:SIPF1:1,2013-07-03T16:15:00Z,27.8620,-80.4450,1.0,5.2,136.0,99.0,'11111222,11111222,11144222' 
FIT,ioos:station:wmo:SIPF1:1,2013-07-03T16:30:00Z,27.8620,-80.4450,1.0,5.1,139.0,99.0,'11111222,11111222,11144222' 
FIT,ioos:station:wmo:SIPF1:1,2013-07-03T16:45:00Z,27.8620,-80.4450,1.0,5.1,134.0,99.0,'11111222,11111222,11144222' 
FIT,ioos:station:wmo:SIPF1:1,2013-07-03T17:00:00Z,27.8620,-80.4450,1.0,5.5,147.0,99.0,'11111222,11111222,11144222' 
FIT,ioos:station:wmo:SIPF1:1,2013-07-03T17:15:00Z,27.8620,-80.4450,1.0,5.4,142.0,99.0,'11111222,11111222,11144222' 
FIT,ioos:station:wmo:SIPF1:1,2013-07-03T17:30:00Z,27.8620,-80.4450,1.0,4.6,132.0,99.0,'11111222,11111222,11144222' 
FIT,ioos:station:wmo:SIPF1:1,2013-07-03T17:45:00Z,27.8620,-80.4450,1.0,6.0,137.0,99.0,'11111222,11111222,11144222' 